• In Uzbekistan
  • List of Countries
  • For 7 days
  • Water Temperature
  • Weather Map
  • Weather Widgets
  • user-avatar
    Login

    Hourly Weather Hrazdan

    Today, 21 January, Tuesday

    Time Temperature Precipitation Wind Pressure Humidity
    00:00 -10°C° 0 mm 1 mps 610 mmHg 78%
    01:00 -10°C° 0 mm 1 mps 610 mmHg 77%
    02:00 -10°C° 0 mm 1 mps 610 mmHg 77%
    03:00 -10°C° 0 mm 1 mps 610 mmHg 76%
    04:00 -10°C° 0 mm 1 mps 610 mmHg 75%
    05:00 -11°C° 0 mm 1 mps 610 mmHg 74%
    06:00 -11°C° 0 mm 1 mps 609 mmHg 73%
    07:00 -10°C° 0 mm 1 mps 610 mmHg 73%
    08:00 -9°C° 0 mm 1 mps 611 mmHg 73%
    09:00 -8°C° 0 mm 1 mps 611 mmHg 73%
    10:00 -7°C° 0 mm 1 mps 611 mmHg 73%
    11:00 -4°C° 0 mm 1 mps 612 mmHg 73%
    12:00 -3°C° 0 mm 1 mps 612 mmHg 72%
    13:00 -3°C° 0 mm 1 mps 611 mmHg 75%
    14:00 -3°C° 0 mm 1 mps 611 mmHg 77%
    15:00 -3°C° 0 mm 1 mps 611 mmHg 80%
    16:00 -6°C° 0 mm 1 mps 611 mmHg 79%
    17:00 -7°C° 0 mm 1 mps 610 mmHg 78%
    18:00 -9°C° 0 mm 1 mps 610 mmHg 77%
    19:00 -9°C° 0 mm 1 mps 610 mmHg 76%
    20:00 -10°C° 0 mm 1 mps 610 mmHg 76%
    21:00 -10°C° 0 mm 1 mps 610 mmHg 75%
    22:00 -10°C° 0 mm 1 mps 610 mmHg 75%
    23:00 -10°C° 0 mm 1 mps 610 mmHg 75%

    Tomorrow, 22 January, Wednesday

    Time Temperature Precipitation Wind Pressure Humidity
    00:00 -11°C° 0 mm 1 mps 610 mmHg 75%
    01:00 -11°C° 0 mm 1 mps 610 mmHg 74%
    02:00 -11°C° 0 mm 1 mps 610 mmHg 73%
    03:00 -11°C° 0 mm 1 mps 610 mmHg 72%
    04:00 -11°C° 0 mm 1 mps 610 mmHg 72%
    05:00 -12°C° 0 mm 1 mps 609 mmHg 72%
    06:00 -12°C° 0 mm 1 mps 609 mmHg 72%
    07:00 -11°C° 0 mm 1 mps 610 mmHg 74%
    08:00 -10°C° 0 mm 1 mps 610 mmHg 75%
    09:00 -9°C° 0 mm 1 mps 611 mmHg 77%
    10:00 -9°C° 0 mm 2 mps 611 mmHg 77%
    11:00 -8°C° 0 mm 2 mps 610 mmHg 77%
    12:00 -7°C° 0 mm 2 mps 610 mmHg 77%
    13:00 -7°C° 0 mm 2 mps 610 mmHg 78%
    14:00 -7°C° 0 mm 2 mps 610 mmHg 80%
    15:00 -6°C° 0 mm 1 mps 609 mmHg 81%
    16:00 -8°C° 0 mm 2 mps 609 mmHg 79%
    17:00 -9°C° 0 mm 2 mps 608 mmHg 78%
    18:00 -10°C° 0 mm 2 mps 608 mmHg 76%
    19:00 -12°C° 0 mm 2 mps 608 mmHg 75%
    20:00 -12°C° 0 mm 2 mps 607 mmHg 74%
    21:00 -12°C° 0 mm 2 mps 607 mmHg 72%
    22:00 -13°C° 0 mm 2 mps 607 mmHg 72%
    23:00 -13°C° 0 mm 2 mps 606 mmHg 73%

    Day after tomorrow, 23 January, Thursday

    Time Temperature Precipitation Wind Pressure Humidity
    00:00 -13°C° 0 mm 2 mps 606 mmHg 73%
    01:00 -14°C° 0 mm 2 mps 605 mmHg 74%
    02:00 -14°C° 0 mm 2 mps 605 mmHg 76%
    03:00 -14°C° 0 mm 2 mps 605 mmHg 77%
    04:00 -14°C° 0 mm 2 mps 604 mmHg 78%
    05:00 -14°C° 0 mm 2 mps 604 mmHg 78%
    06:00 -14°C° 0 mm 2 mps 603 mmHg 79%
    07:00 -13°C° 0 mm 2 mps 603 mmHg 79%
    08:00 -12°C° 0 mm 2 mps 603 mmHg 80%
    09:00 -12°C° 0 mm 2 mps 603 mmHg 81%
    10:00 -12°C° 0 mm 3 mps 603 mmHg 80%
    11:00 -10°C° 0 mm 3 mps 603 mmHg 79%
    12:00 -8°C° 0 mm 3 mps 603 mmHg 78%
    13:00 -9°C° 0 mm 3 mps 602 mmHg 78%
    14:00 -9°C° 0 mm 3 mps 602 mmHg 78%
    15:00 -9°C° 0 mm 3 mps 601 mmHg 78%
    16:00 -10°C° 0 mm 3 mps 601 mmHg 81%
    17:00 -10°C° 0 mm 2 mps 601 mmHg 85%
    18:00 -10°C° 0 mm 2 mps 601 mmHg 88%
    19:00 -10°C° 0.1 mm 2 mps 602 mmHg 89%
    20:00 -10°C° 0.1 mm 2 mps 602 mmHg 90%
    21:00 -10°C° 0.1 mm 2 mps 602 mmHg 91%
    22:00 -10°C° 0.1 mm 2 mps 602 mmHg 92%
    23:00 -12°C° 0.1 mm 2 mps 602 mmHg 92%

    24 January, Friday

    Time Temperature Precipitation Wind Pressure Humidity
    00:00 -12°C° 0.1 mm 2 mps 602 mmHg 92%
    01:00 -12°C° 0 mm 2 mps 602 mmHg 91%
    02:00 -12°C° 0 mm 2 mps 602 mmHg 90%
    03:00 -12°C° 0 mm 2 mps 602 mmHg 90%
    04:00 -12°C° 0 mm 2 mps 602 mmHg 85%
    05:00 -13°C° 0 mm 2 mps 603 mmHg 81%
    06:00 -13°C° 0 mm 2 mps 603 mmHg 77%
    07:00 -13°C° 0 mm 2 mps 603 mmHg 75%
    08:00 -12°C° 0 mm 2 mps 604 mmHg 74%
    09:00 -12°C° 0 mm 2 mps 605 mmHg 72%
    10:00 -10°C° 0 mm 2 mps 605 mmHg 70%
    11:00 -9°C° 0 mm 2 mps 605 mmHg 67%
    12:00 -8°C° 0 mm 2 mps 606 mmHg 64%
    13:00 -9°C° 0 mm 2 mps 606 mmHg 65%
    14:00 -9°C° 0 mm 2 mps 606 mmHg 65%
    15:00 -9°C° 0 mm 2 mps 606 mmHg 66%
    16:00 -10°C° 0 mm 2 mps 606 mmHg 66%
    17:00 -13°C° 0 mm 2 mps 606 mmHg 66%
    18:00 -14°C° 0 mm 2 mps 606 mmHg 67%
    19:00 -15°C° 0 mm 2 mps 606 mmHg 67%
    20:00 -16°C° 0 mm 2 mps 607 mmHg 67%
    21:00 -16°C° 0 mm 2 mps 608 mmHg 67%
    22:00 -17°C° 0 mm 2 mps 608 mmHg 67%
    23:00 -17°C° 0 mm 2 mps 608 mmHg 66%

    25 January, Saturday

    Time Temperature Precipitation Wind Pressure Humidity
    00:00 -18°C° 0 mm 2 mps 608 mmHg 66%
    01:00 -18°C° 0 mm 2 mps 609 mmHg 67%
    02:00 -18°C° 0 mm 2 mps 609 mmHg 68%
    03:00 -18°C° 0 mm 2 mps 609 mmHg 68%
    04:00 -19°C° 0 mm 2 mps 610 mmHg 66%
    05:00 -19°C° 0 mm 2 mps 610 mmHg 64%
    06:00 -19°C° 0 mm 2 mps 610 mmHg 61%
    07:00 -18°C° 0 mm 2 mps 611 mmHg 62%
    08:00 -14°C° 0 mm 1 mps 612 mmHg 62%
    09:00 -13°C° 0 mm 1 mps 613 mmHg 63%
    10:00 -12°C° 0 mm 1 mps 614 mmHg 61%
    11:00 -10°C° 0 mm 1 mps 614 mmHg 59%
    12:00 -9°C° 0 mm 0 mps 615 mmHg 57%
    13:00 -9°C° 0 mm 0 mps 615 mmHg 62%
    14:00 -9°C° 0 mm 0 mps 615 mmHg 66%
    15:00 -8°C° 0 mm 0 mps 614 mmHg 70%
    16:00 -10°C° 0 mm 0 mps 614 mmHg 69%
    17:00 -12°C° 0 mm 1 mps 613 mmHg 67%
    18:00 -14°C° 0 mm 1 mps 613 mmHg 66%
    19:00 -14°C° 0 mm 1 mps 613 mmHg 63%
    20:00 -14°C° 0 mm 1 mps 613 mmHg 60%
    21:00 -14°C° 0 mm 1 mps 613 mmHg 57%
    22:00 -16°C° 0 mm 2 mps 613 mmHg 56%
    23:00 -16°C° 0 mm 2 mps 613 mmHg 55%

    26 January, Sunday

    Time Temperature Precipitation Wind Pressure Humidity
    00:00 -16°C° 0 mm 2 mps 613 mmHg 54%
    01:00 -16°C° 0 mm 2 mps 613 mmHg 54%
    02:00 -16°C° 0 mm 2 mps 613 mmHg 54%
    03:00 -16°C° 0 mm 2 mps 613 mmHg 54%
    04:00 -16°C° 0 mm 2 mps 613 mmHg 55%
    05:00 -16°C° 0 mm 2 mps 613 mmHg 55%
    06:00 -15°C° 0 mm 2 mps 613 mmHg 55%
    07:00 -14°C° 0 mm 2 mps 613 mmHg 58%
    08:00 -13°C° 0 mm 2 mps 614 mmHg 61%
    09:00 -12°C° 0 mm 2 mps 615 mmHg 64%
    10:00 -10°C° 0 mm 2 mps 615 mmHg 65%
    11:00 -8°C° 0 mm 2 mps 615 mmHg 67%
    12:00 -7°C° 0 mm 2 mps 615 mmHg 68%
    13:00 -7°C° 0 mm 2 mps 615 mmHg 70%
    14:00 -7°C° 0 mm 2 mps 615 mmHg 73%
    15:00 -6°C° 0 mm 2 mps 614 mmHg 75%
    16:00 -8°C° 0 mm 2 mps 614 mmHg 72%
    17:00 -9°C° 0 mm 2 mps 614 mmHg 68%
    18:00 -10°C° 0 mm 2 mps 613 mmHg 65%
    19:00 -10°C° 0 mm 2 mps 613 mmHg 63%
    20:00 -10°C° 0 mm 2 mps 613 mmHg 62%
    21:00 -10°C° 0 mm 2 mps 613 mmHg 60%
    22:00 -10°C° 0 mm 2 mps 613 mmHg 60%
    23:00 -10°C° 0 mm 2 mps 613 mmHg 60%
    Show more